GW3789 Weather Reports


Display with metric or nautical units.
time (UTC)temp
F
wind
direction
speed
MPH
gust
MPH
rain 1hr
in
rain 24hr
in
rain mn
in
humidity
%
barometer
mb
20260505173004 51 213 0.0 1.0 0.00 0.96 0.23 84 1011.1
20260505172502 51 158 0.0 1.0 0.00 0.96 0.23 83 1011.2
20260505172002 51 143 0.0 1.0 0.00 0.97 0.23 83 1011.2
20260505171506 51 283 0.0 1.0 0.00 0.98 0.23 85 1011.2
20260505171002 51 39 0.0 2.0 0.00 0.99 0.23 85 1011.2
20260505170504 50 38 0.0 2.0 0.00 0.99 0.23 84 1011.2
20260505170007 50 240 0.0 2.0 0.00 0.99 0.23 83 1011.2
20260505165502 50 276 0.0 1.0 0.00 0.99 0.23 83 1011.1
20260505165003 51 285 0.0 2.0 0.00 0.99 0.23 83 1011.2
20260505164504 51 281 0.0 2.0 0.01 0.99 0.23 83 1011.2
20260505164003 51 250 0.0 1.0 0.02 0.99 0.23 82 1011.2
20260505163505 51 270 0.0 2.0 0.02 0.99 0.23 83 1011.3
20260505163009 51 125 0.0 2.0 0.02 0.99 0.23 86 1011.3
20260505162502 51 280 0.0 2.0 0.02 0.99 0.23 87 1011.3
20260505162003 50 119 0.0 2.0 0.02 0.99 0.23 89 1011.4
20260505161504 50 128 0.0 3.0 0.02 0.99 0.23 89 1011.5
20260505161003 49 117 1.0 3.0 0.02 0.99 0.23 90 1011.6
20260505160506 49 160 0.0 1.0 0.02 0.99 0.23 90 1011.6
20260505153003 50 122 0.0 2.0 0.00 0.96 0.21 89 1011.7
20260505152501 50 146 0.0 3.0 0.02 0.96 0.21 90 1011.7
20260505152004 49 162 0.0 3.0 0.05 0.96 0.21 90 1011.7
20260505151504 49 106 1.0 3.0 0.06 0.96 0.21 90 1011.8
20260505151004 49 98 0.0 3.0 0.07 0.96 0.21 91 1011.8
20260505150503 48 163 0.0 2.0 0.07 0.96 0.21 91 1011.7
20260505140503 53 253 2.0 7.0 0.00 0.88 0.13 78 1011.1
20260505125007 55 343 1.0 4.0 0.00 0.88 0.13 77 1011.3
20260505124519 55 160 1.0 3.0 0.00 0.88 0.13 81 1011.3
20260505124006 55 94 1.0 3.0 0.00 0.88 0.13 81 1011.4
20260505123505 55 139 1.0 3.0 0.00 0.88 0.13 81 1011.4
20260505123009 54 15 0.0 4.0 0.00 0.88 0.13 83 1011.5
20260505122508 54 299 1.0 4.0 0.00 0.88 0.13 83 1011.4
20260505122009 54 186 1.0 5.0 0.00 0.88 0.13 84 1011.5
20260505121512 53 275 2.0 5.0 0.00 0.88 0.13 84 1011.5
20260505121007 53 298 0.0 3.0 0.00 0.88 0.13 85 1011.5
20260505120506 53 261 0.0 3.0 0.00 0.88 0.13 86 1011.5
20260505120024 53 101 0.0 3.0 0.00 0.88 0.13 86 1011.5
20260505115503 53 121 0.0 3.0 0.00 0.88 0.13 87 1011.6
20260505115008 52 185 0.0 4.0 0.00 0.88 0.13 85 1011.7
20260505114519 53 274 1.0 4.0 0.00 0.88 0.12 83 1011.7
20260505114008 53 285 1.0 3.0 0.00 0.88 0.12 84 1011.7
20260505113503 53 233 0.0 5.0 0.00 0.88 0.12 86 1011.7
20260505113010 52 269 2.0 5.0 0.00 0.88 0.12 85 1011.7
20260505112504 52 265 1.0 4.0 0.00 0.88 0.12 86 1011.7
20260505112009 52 227 1.0 4.0 0.00 0.88 0.12 85 1011.8
20260505111518 52 129 0.0 6.0 0.00 0.88 0.12 86 1011.9
20260505111003 52 264 0.0 6.0 0.00 0.88 0.12 87 1012.0
20260505110506 52 268 1.0 4.0 0.00 0.88 0.12 88 1012.0
20260505102007 50 271 1.0 4.0 0.00 0.88 0.12 90 1011.9
20260505101512 50 266 0.0 5.0 0.00 0.88 0.12 89 1011.9
20260505101014 50 266 2.0 5.0 0.00 0.88 0.12 89 1011.8
20260505100507 50 281 1.0 5.0 0.00 0.88 0.12 89 1011.9
20260505100022 50 249 2.0 5.0 0.00 0.88 0.12 88 1011.7
20260505095506 50 32 1.0 3.0 0.00 0.88 0.12 89 1011.7
20260505095006 50 275 0.0 3.0 0.00 0.88 0.12 90 1011.7
20260505094526 50 266 0.0 3.0 0.00 0.88 0.12 91 1011.7
20260505094007 50 148 0.0 3.0 0.00 0.88 0.12 90 1011.7
20260505093508 50 219 1.0 2.0 0.00 0.88 0.12 90 1011.7
20260505093018 50 274 0.0 4.0 0.00 0.88 0.12 91 1011.7
20260505092506 49 299 1.0 4.0 0.00 0.88 0.12 91 1011.7
20260505092004 49 272 2.0 4.0 0.00 0.88 0.12 91 1011.6
20260505091510 49 266 1.0 4.0 0.00 0.88 0.12 92 1011.6
20260505091004 49 110 0.0 4.0 0.00 0.88 0.12 92 1011.6
20260505090507 49 158 0.0 4.0 0.00 0.88 0.12 93 1011.5
20260505090019 49 288 1.0 4.0 0.00 0.88 0.12 93 1011.5
20260505085507 48 262 1.0 4.0 0.00 0.88 0.12 93 1011.5
20260505085006 48 240 1.0 3.0 0.00 0.88 0.12 93 1011.5
20260505084518 48 257 1.0 4.0 0.00 0.88 0.12 93 1011.5
20260505084003 48 279 1.0 6.0 0.00 0.88 0.12 93 1011.5
20260505083503 47 280 2.0 6.0 0.00 0.88 0.12 93 1011.5
20260505083006 47 248 1.0 4.0 0.00 0.88 0.12 93 1011.4
20260505082503 48 250 1.0 5.0 0.00 0.88 0.12 93 1011.3
20260505082007 47 252 2.0 5.0 0.00 0.88 0.12 93 1011.3
20260505081507 48 289 2.0 4.0 0.00 0.88 0.12 93 1011.4
20260505081007 48 295 1.0 4.0 0.00 0.88 0.12 94 1011.3
20260505080504 48 256 1.0 6.0 0.00 0.88 0.12 95 1011.3
20260505080012 47 259 2.0 6.0 0.00 0.88 0.12 94 1011.3
20260505075508 47 270 1.0 4.0 0.00 0.88 0.12 95 1011.2
20260505075007 47 286 1.0 5.0 0.00 0.88 0.12 95 1011.3
20260505074515 47 307 2.0 5.0 0.00 0.88 0.12 95 1011.2
20260505074007 47 283 1.0 5.0 0.00 0.88 0.12 95 1011.2
20260505073511 47 269 1.0 5.0 0.00 0.88 0.12 95 1011.2
20260505073017 47 257 2.0 5.0 0.00 0.88 0.12 95 1011.2
20260505072508 47 257 2.0 4.0 0.00 0.88 0.12 95 1011.3
20260505072004 47 293 1.0 6.0 0.00 0.88 0.12 95 1011.4
20260505071506 46 288 3.0 6.0 0.00 0.88 0.12 95 1011.4
20260505071003 46 270 1.0 4.0 0.00 0.88 0.12 95 1011.3
20260505070506 46 282 1.0 6.0 0.00 0.88 0.12 95 1011.3
20260505070008 47 273 1.0 6.0 0.00 0.88 0.12 95 1011.2
20260505065503 47 242 3.0 6.0 0.00 0.88 0.12 95 1011.2
20260505065004 47 247 1.0 5.0 0.00 0.88 0.12 95 1011.0
20260505064517 47 274 1.0 4.0 0.00 0.88 0.12 95 1011.2
20260505064005 47 278 1.0 4.0 0.00 0.88 0.12 95 1011.2
20260505063505 47 284 1.0 5.0 0.00 0.88 0.12 95 1011.3
20260505063016 47 284 1.0 5.0 0.00 0.88 0.12 95 1011.2
20260505062506 47 269 1.0 5.0 0.00 0.88 0.12 95 1011.2
20260505062008 47 289 2.0 5.0 0.01 0.88 0.12 95 1011.1
20260505061520 47 292 2.0 5.0 0.01 0.88 0.12 95 1011.1
20260505061006 47 285 1.0 5.0 0.01 0.88 0.12 95 1011.1
20260505060510 47 276 1.0 5.0 0.01 0.88 0.12 95 1011.1
20260505060020 47 253 2.0 5.0 0.01 0.88 0.12 95 1011.1
20260505055503 47 278 1.0 5.0 0.00 0.87 0.11 95 1011.0
20260505055004 47 296 1.0 5.0 0.00 0.87 0.11 95 1011.0
20260505054512 47 285 2.0 4.0 0.00 0.87 0.11 95 1010.9
20260505054011 47 210 1.0 7.0 0.00 0.87 0.11 95 1010.9
20260505053505 47 253 3.0 7.0 0.00 0.87 0.11 95 1010.9
20260505053015 47 247 1.0 5.0 0.00 0.87 0.11 95 1010.8
20260505052505 47 245 1.0 5.0 0.00 0.87 0.11 95 1010.9
20260505052006 47 267 0.0 5.0 0.00 0.86 0.11 95 1010.8
20260505051524 48 271 1.0 6.0 0.00 0.86 0.11 95 1010.8
20260505051007 48 265 1.0 6.0 0.00 0.86 0.11 95 1010.8
20260505050507 48 240 1.0 6.0 0.00 0.86 0.11 95 1010.7
20260505041520 48 248 1.0 4.0 0.01 0.86 0.11 94 1010.4
20260505041010 48 283 1.0 4.0 0.01 0.86 0.11 94 1010.4
20260505040505 48 271 1.0 3.0 0.01 0.86 0.11 94 1010.4
20260505040020 48 226 0.0 3.0 0.01 0.86 0.11 94 1010.4
20260505035507 48 218 0.0 2.0 0.01 0.86 0.11 94 1010.5
20260505035015 48 200 0.0 2.0 0.00 0.85 0.10 94 1010.4
20260505034524 48 248 0.0 2.0 0.00 0.85 0.10 94 1010.4
20260505034007 48 199 0.0 4.0 0.00 0.85 0.10 94 1010.4
20260505033509 48 148 0.0 4.0 0.00 0.85 0.10 95 1010.4
20260505033025 48 283 2.0 4.0 0.01 0.85 0.10 94 1010.5
20260505032511 48 284 0.0 1.0 0.01 0.85 0.10 94 1010.4
20260505032007 48 136 0.0 1.0 0.03 0.85 0.09 94 1010.4
20260505031516 48 139 0.0 1.0 0.03 0.85 0.09 94 1010.5
20260505031006 48 121 0.0 2.0 0.03 0.85 0.09 94 1010.5
20260505030506 48 186 0.0 2.0 0.03 0.85 0.09 94 1010.5
20260505030016 48 132 0.0 1.0 0.03 0.85 0.09 94 1010.5
20260505025510 48 143 0.0 1.0 0.03 0.85 0.09 94 1010.5
20260505025006 48 226 0.0 1.0 0.04 0.85 0.09 94 1010.6
20260505024526 48 134 0.0 1.0 0.04 0.85 0.09 94 1010.6
20260505024007 48 105 0.0 4.0 0.05 0.85 0.09 94 1010.6
20260505023508 48 133 0.0 4.0 0.05 0.85 0.09 94 1010.7
20260505023027 48 140 0.0 1.0 0.04 0.84 0.08 94 1010.6
20260505022506 48 127 0.0 1.0 0.04 0.84 0.08 94 1010.6
20260505022013 48 122 0.0 1.0 0.02 0.81 0.06 94 1010.7
20260505021529 48 148 0.0 2.0 0.01 0.81 0.05 94 1010.6
20260505021010 48 124 0.0 2.0 0.01 0.81 0.05 94 1010.7
20260505020510 48 131 0.0 3.0 0.01 0.81 0.05 94 1010.7
20260505020012 48 157 0.0 3.0 0.01 0.81 0.05 94 1010.7
20260505015507 48 126 0.0 2.0 0.01 0.81 0.05 94 1010.7
20260505015007 48 132 0.0 2.0 0.00 0.80 0.04 94 1010.7
20260505014526 48 143 0.0 2.0 0.00 0.80 0.04 94 1010.7
20260505014012 48 181 0.0 2.0 0.00 0.79 0.03 94 1010.7
20260505013507 48 120 0.0 1.0 0.00 0.79 0.03 94 1010.8
20260505013027 47 248 0.0 2.0 0.00 0.79 0.03 94 1010.7
20260505012507 47 143 0.0 2.0 0.00 0.79 0.03 93 1010.8
20260505012007 47 101 0.0 1.0 0.00 0.79 0.03 93 1010.8
20260505011526 47 301 0.0 1.0 0.01 0.79 0.03 93 1010.7
20260505011006 47 85 0.0 1.0 0.01 0.79 0.03 93 1010.8
20260505010510 47 104 0.0 1.0 0.02 0.80 0.03 93 1010.8
20260505010027 47 261 0.0 3.0 0.02 0.80 0.03 93 1010.9
20260505005508 47 136 0.0 3.0 0.02 0.80 0.03 93 1011.0
20260505005010 47 235 0.0 2.0 0.02 0.81 0.03 93 1011.0
20260505004528 47 115 0.0 2.0 0.02 0.81 0.03 93 1011.1
20260505004003 47 200 0.0 2.0 0.02 0.81 0.03 93 1011.2
20260505003506 47 63 0.0 2.0 0.03 0.82 0.03 93 1011.2
20260505003017 47 194 0.0 2.0 0.02 0.82 0.03 93 1011.2
20260505002510 47 260 0.0 2.0 0.02 0.83 0.03 93 1011.2
20260505002007 47 267 0.0 2.0 0.02 0.85 0.03 93 1011.3
20260505001522 47 263 0.0 1.0 0.01 0.85 0.02 93 1011.3
20260505001008 47 227 0.0 1.0 0.01 0.86 0.02 93 1011.4
20260505000508 47 175 0.0 2.0 0.00 0.86 0.01 93 1011.4
20260505000029 47 154 0.0 2.0 0.00 0.88 0.01 92 1011.5
20260504235510 47 136 1.0 3.0 0.00 0.90 0.01 93 1011.5
20260504235012 47 153 1.0 3.0 0.00 0.92 0.01 93 1011.5
20260504234527 47 117 1.0 2.0 0.00 0.93 0.01 93 1011.4
20260504234009 48 160 1.0 2.0 0.00 0.95 0.01 93 1011.5
20260504233510 48 129 0.0 3.0 0.00 0.96 0.00 93 1011.5
20260504233028 47 136 0.0 3.0 0.00 0.97 0.00 93 1011.6
20260504232511 48 127 1.0 2.0 0.00 0.98 0.00 93 1011.7
20260504232006 48 126 0.0 1.0 0.00 0.98 0.00 93 1011.8
20260504231521 48 167 0.0 1.0 0.00 0.99 0.00 94 1011.9
20260504231009 48 134 0.0 1.0 0.00 1.00 0.00 94 1011.9
20260504230508 48 142 0.0 2.0 0.00 1.00 0.00 94 1011.8
20260504230006 49 126 0.0 2.0 0.00 1.00 0.00 94 1011.8
20260504225502 49 117 1.0 2.0 0.00 1.01 0.00 94 1011.9
20260504225009 49 126 1.0 2.0 0.00 1.03 0.00 94 1011.9
20260504224507 49 123 0.0 1.0 0.00 1.03 0.00 94 1012.0
20260504224002 49 123 0.0 1.0 0.00 1.03 0.00 94 1012.1
20260504223506 49 123 0.0 1.0 0.00 1.03 0.00 94 1012.1
20260504223011 49 123 0.0 0.0 0.00 1.04 0.00 94 1012.1
20260504222504 49 122 0.0 0.0 0.00 1.06 0.00 94 1012.1
20260504222006 49 122 0.0 0.0 0.00 1.07 0.00 94 1012.1
20260504221516 49 123 0.0 0.0 0.00 1.07 0.00 94 1012.1
20260504221007 49 123 0.0 0.0 0.00 1.07 0.00 94 1012.2
20260504220511 49 122 0.0 0.0 0.01 1.08 0.00 94 1012.2
20260504220036 49 122 0.0 0.0 0.01 1.09 0.00 94 1012.3
20260504215508 49 122 0.0 1.0 0.02 1.09 1.09 94 1012.2
20260504215012 49 123 0.0 1.0 0.03 1.10 1.09 94 1012.3
20260504214527 49 129 0.0 1.0 0.03 1.10 1.09 94 1012.4
20260504214005 49 129 0.0 1.0 0.05 1.11 1.09 94 1012.4
20260504213502 49 129 0.0 1.0 0.06 1.11 1.09 94 1012.5
20260504213007 49 130 0.0 2.0 0.07 1.11 1.09 94 1012.7
20260504212506 49 131 0.0 2.0 0.08 1.11 1.09 94 1012.8
20260504212003 49 30 0.0 0.0 0.09 1.11 1.08 94 1013.0
20260504211523 49 30 0.0 0.0 0.10 1.11 1.08 94 1013.0
20260504211003 49 30 0.0 0.0 0.12 1.11 1.08 94 1013.0
20260504210507 49 30 0.0 0.0 0.14 1.10 1.07 94 1013.0
20260504210017 49 30 0.0 0.0 0.14 1.10 1.07 94 1013.0
20260504205509 49 30 0.0 0.0 0.15 1.09 1.07 94 1012.9
20260504205006 49 30 0.0 0.0 0.15 1.07 1.05 93 1012.9
20260504204523 49 30 0.0 0.0 0.17 1.07 1.05 93 1012.9
20260504204008 49 30 0.0 0.0 0.17 1.06 1.03 93 1012.9
20260504203510 49 30 0.0 0.0 0.17 1.05 1.03 94 1012.8
20260504203028 49 30 0.0 0.0 0.15 1.03 1.01 93 1012.8
20260504202509 49 30 0.0 0.0 0.15 1.03 1.00 93 1012.8
20260504202002 49 30 0.0 1.0 0.14 1.01 0.99 93 1012.6
20260504201509 49 30 0.0 1.0 0.14 1.00 0.98 93 1012.5
20260504201004 49 30 0.0 1.0 0.12 0.98 0.96 93 1012.5
20260504200508 49 51 0.0 1.0 0.11 0.96 0.93 93 1012.4
20260504200013 49 51 0.0 1.0 0.13 0.95 0.92 93 1012.4
20260504195507 49 47 0.0 1.0 0.14 0.93 0.91 93 1012.4
20260504195007 49 48 0.0 1.0 0.17 0.92 0.89 93 1012.2
20260504194519 49 47 0.0 1.0 0.20 0.90 0.88 93 1012.1
20260504194007 49 47 0.0 1.0 0.23 0.88 0.86 93 1012.0
20260504193508 49 46 0.0 1.0 0.27 0.88 0.85 93 1012.0
20260504193026 49 46 0.0 1.0 0.30 0.88 0.85 93 1011.9
20260504192509 49 48 0.0 1.0 0.32 0.87 0.85 93 1012.0
20260504192009 49 48 0.0 1.0 0.34 0.86 0.84 93 1012.0
20260504191526 50 333 0.0 1.0 0.37 0.86 0.84 93 1012.1
20260504191010 50 332 0.0 1.0 0.37 0.85 0.83 93 1012.1
20260504190509 50 200 0.0 0.0 0.37 0.84 0.81 93 1012.0
20260504190012 50 200 0.0 0.0 0.37 0.81 0.79 93 1012.1
20260504185512 50 200 0.0 1.0 0.35 0.78 0.76 92 1012.1
20260504185010 50 203 0.0 1.0 0.32 0.74 0.72 92 1012.2
20260504184519 50 138 0.0 2.0 0.29 0.70 0.67 92 1012.2
20260504184009 50 136 0.0 2.0 0.25 0.65 0.62 92 1012.1
20260504183507 50 283 1.0 3.0 0.20 0.60 0.58 92 1012.0
20260504183019 50 269 1.0 3.0 0.18 0.57 0.55 92 1012.0
20260504182506 50 274 1.0 5.0 0.16 0.55 0.52 92 1012.0
20260504182009 50 125 1.0 5.0 0.14 0.51 0.49 91 1012.0
20260504181530 50 271 2.0 5.0 0.12 0.49 0.47 91 1011.8
20260504181011 50 240 2.0 5.0 0.11 0.48 0.45 90 1011.8
20260504180506 50 242 1.0 5.0 0.10 0.46 0.44 90 1011.8
20260504180024 50 268 2.0 6.0 0.08 0.44 0.42 90 1011.7
20260504175509 51 257 3.0 6.0 0.07 0.43 0.40 90 1011.7
20260504175010 51 235 3.0 7.0 0.06 0.42 0.40 89 1011.6
20260504174526 52 285 3.0 7.0 0.04 0.40 0.38 89 1011.6
20260504174008 54 210 3.0 7.0 0.03 0.40 0.37 89 1011.5
20260504173507 54 272 3.0 6.0 0.03 0.40 0.37 90 1011.6